Вернуться в каталог

STARLINK-2457

АктивенСвязьVLEO
NORAD 48321·PAYLOAD·🇺🇸 United States

Запущен Apr 29, 2021 с Cape Canaveral Space Force Station

Loading…

Ближайшие Пролёты (ближайшие 24 часа)

TLE

СвежийSource: CelesTrak SupGP

Эпоха: Sep 14, 2026, 21:28 UTC

1 48321C 21036AX  26257.89493056  .00013047  00000+0  41950-3 0  2579
2 48321  53.1587 300.5497 0001357  77.3133 163.7378 15.31700523    10

Отслеживайте STARLINK-2457 в реальном времени с AllMySat

Download on the App Store